Regional Weather Roundup
Issued by NWS

Home | Current Version | Previous Version | Graphics & Text | Print | Product List | Glossary On
Versions: 1 2 3 4 5 6 7 8 9 10 11 12 13 14 15 16 17 18 19 20 21 22 23 24 25 26 27 28 29 30 31 32 33 34 35 36 37 38 39 40 41 42 43 44 45 46 47 48 49 50
000
ASUS45 KCYS 281610
RWRWY

WYOMING REGIONAL WEATHER ROUNDUP
NATIONAL WEATHER SERVICE CHEYENNE WY
1000 AM MDT THU AUG 28 2014

NOTE:  "FAIR" INDICATES FEW OR NO CLOUDS BELOW 12,000 FEET
WITH NO SIGNIFICANT WEATHER AND/OR OBSTRUCTIONS TO VISIBILITY.

WYZ001-281700-
YELLOWSTONE NATIONAL PARK

CITY           SKY/WX    TMP DP  RH WIND       PRES   REMARKS
LK YELLOWSTONE   N/A     55  44  66 E5        30.40S
W YELLOWSTONE  NOT AVBL

$$
WYZ002>013-054>058-071-098>099-281700-
NORTHERN WYOMING

CITY           SKY/WX    TMP DP  RH WIND       PRES   REMARKS
JACKSON        SUNNY     57  45  62 CALM      30.33F
CODY           SUNNY     73  46  38 W7        30.14F
GREYBULL       SUNNY     67  55  65 SE5       30.11S
WORLAND        SUNNY     67  53  61 CALM      30.12F
SHERIDAN       SUNNY     79  47  32 N6        30.06S
BUFFALO        SUNNY     75  45  34 N9        30.12S
GILLETTE       MOSUNNY   74  53  48 N9        30.07S
HULETT         FAIR      70  54  56 MISG      30.07
NEWCASTLE      FAIR      68  52  56 NW8       30.07

$$
WYZ014>020-022>026-101>103-281700-
CENTRAL WYOMING

CITY           SKY/WX    TMP DP  RH WIND       PRES   REMARKS
BIG PINEY      SUNNY     57  47  69 S5        30.33S
PINEDALE       SUNNY     61  43  51 W9        30.33S
DUBOIS         FAIR      63  39  42 N8        30.31S
LANDER         SUNNY     67  50  54 SE6       30.20S
RIVERTON       SUNNY     65  48  54 VRB3      30.21S
CASPER         MOSUNNY   68  51  54 W9        30.17R
DOUGLAS        CLOUDY    63  54  72 NW12      30.14R

$$
WYZ021-027>030-104>119-281700-
SOUTHERN WYOMING

CITY           SKY/WX    TMP DP  RH WIND       PRES   REMARKS
EVANSTON       MOSUNNY   57  50  77 SW9       30.37S
KEMMERER       SUNNY     59  48  67 SW5       30.37R
FORT BRIDGER   FAIR      62  49  62 W12       30.38S
ROCK SPRINGS   PTSUNNY   55  48  77 W12       30.33R
DIXON          CLOUDY    54  51  89 CALM      30.35R
RAWLINS        PTSUNNY   57  50  77 W17       30.28R
SARATOGA       CLOUDY    52  50  93 S6        30.31R
LARAMIE        LGT RAIN  49  47  93 NW14      30.27R
CHEYENNE       CLOUDY    58  48  69 NW16G25   30.18R
TORRINGTON     LGT RAIN  60  58  92 W12       30.08R
PINE BLUFFS    CLOUDY    61  52  72 NW20      30.14S

$$


USA.gov is the U.S. government's official web portal to all federal, state and local government web resources and services.